Home   Weather   Rasht   Past weeks

Flag for Iran Past Weather in Rasht, Iran — Yesterday and Last 2 Weeks

Now
57 °F

Fog.


Feels Like: 57 °F
Forecast: 57 / 73 °F
Wind: 5 mph from Northeast

Location: Rasht Airport

Current Time: Apr 30, 2017 at 6:09:05 am

Latest Report: Apr 30, 2017 at 4:30 am


Visibility: 2 mi

Pressure: 30.04 "Hg

Humidity: 94%

Dew Point: 55 °F

Location of RashtLocation

Past Weather in Rasht — Graph

°F

Rasht Temperature Yesterday

Maximum temperature yesterday: 64 °F (at 3:30 pm)
Minimum temperature yesterday: 52 °F (at 5:30 am)
Average temperature yesterday: 59 °F

High & Low Weather Summary for the Past Weeks

 TemperatureHumidityPressure
High84 °F (Apr 19, 11:30 am)100% (Apr 15, 11:30 pm)30.57 "Hg (Apr 15, 11:30 pm)
Low46 °F (Apr 17, 6:30 am)23% (Apr 19, 2:30 pm)29.68 "Hg (Apr 24, 2:30 am)
Average59 °F82%30.10 "Hg
* Reported Apr 15 4:30 am — Apr 30 4:30 am, Rasht, Weather by CustomWeather, © 2017

Note: Actual official high and low records may vary slightly from our data, if they occured in-between our weather recording intervals... More about our weather records

Advertising

Rasht Weather History for the Previous 24 Hours

Scroll right to see more
 ConditionsComfort  
Time TempWeatherWind HumidityBarometerVisibility
4:30 am
Sun, Apr 30
57 °FFog.5 mph94%30.04 "Hg2 mi
3:30 am57 °FFog.5 mph100%30.04 "Hg3 mi
2:30 am57 °FFog.2 mph100%30.04 "Hg3 mi
1:30 am57 °FMostly cloudy.No wind100%30.09 "HgN/A
12:30 am59 °FMostly cloudy.9 mph94%30.07 "HgN/A
11:30 pm
Sat, Apr 29
59 °FMostly cloudy.No wind94%30.07 "HgN/A
10:30 pm59 °FMostly cloudy.5 mph88%30.09 "HgN/A
10:00 pm59 °FMostly cloudy.No wind88%30.09 "HgN/A
9:30 pm59 °FMostly cloudy.5 mph88%30.09 "HgN/A
9:00 pm61 °FMostly cloudy.No wind77%30.07 "HgN/A
8:30 pm61 °FMostly cloudy.5 mph77%30.07 "HgN/A
8:00 pm63 °FMore clouds than sun.No wind68%30.07 "HgN/A
7:30 pm63 °FMore clouds than sun.5 mph68%30.07 "HgN/A
7:00 pm64 °FMore clouds than sun.5 mph64%30.07 "HgN/A
6:30 pm64 °FMore clouds than sun.No wind64%30.07 "HgN/A
6:00 pm64 °FBroken clouds.5 mph64%30.07 "HgN/A
5:00 pm63 °FBroken clouds.No wind73%30.07 "Hg4 mi
4:30 pm63 °FMore clouds than sun.7 mph73%30.07 "Hg4 mi
4:00 pm64 °FBroken clouds.7 mph78%30.09 "Hg4 mi
3:30 pm64 °FBroken clouds.No wind78%30.12 "Hg4 mi
3:00 pm63 °FBroken clouds.9 mph83%30.09 "Hg4 mi
2:30 pm63 °FBroken clouds.No wind83%30.12 "Hg4 mi
2:00 pm63 °FBroken clouds.No wind83%30.12 "Hg4 mi
1:30 pm59 °FSprinkles. More clouds than sun.No wind88%30.15 "Hg4 mi
1:00 pm59 °FMostly cloudy.No wind88%30.15 "Hg4 mi
12:00 pm59 °FSprinkles. Mostly cloudy.7 mph88%30.18 "Hg4 mi
11:30 am59 °FSprinkles. Mostly cloudy.7 mph88%30.18 "Hg4 mi
11:00 am57 °FMore clouds than sun.5 mph94%30.18 "Hg4 mi
10:30 am57 °FLight rain. More clouds than sun.5 mph94%30.18 "Hg2 mi
10:00 am55 °FFog.No wind100%30.21 "Hg3 mi
9:30 am55 °FLight rain. Overcast.7 mph100%30.21 "Hg2 mi
9:00 am55 °FFog.No wind100%30.21 "Hg2 mi
8:30 am55 °FFog.No wind100%30.21 "Hg2 mi
8:00 am54 °FFog.No wind94%30.18 "Hg2 mi
7:30 am54 °FFog.No wind94%30.18 "Hg2 mi
7:00 am54 °FFog.No wind94%30.18 "Hg2 mi
6:30 am54 °FFog.No wind94%30.18 "Hg2 mi
Weather by CustomWeather, © 2017

See weather overviewHow to use our weather pages